Tracking 31027 objects as of 19-Jul-2025
HD Live streaming from Space Station
objects crossing your sky now

BREEZE-M DEB

Track BREEZE-M DEB now!
10-day predictions


NORAD ID: 38922
Int'l Code: 2012-044BF
Perigee: 264.0 km
Apogee: 2,698.4 km
Inclination: 50.0 °
Period: 115.4 minutes
Semi major axis: 7852 km
RCS: 0.249 m2 (medium)
Launch date: August 6, 2012
Source: Commonwealth of Independent States (former USSR) (CIS)
Launch site: TYURATAM MISSILE AND SPACE COMPLEX (TTMTR)

Note: This is SATELLITE DEBRIS
Your satellite tracking list
COSMOS 830
Track 1 satellite(s)




NASA's NSSDC Master Catalog

Two Line Element Set (TLE):
1 38922U 12044BF  25199.87302112  .00030092  45700-5  51546-3 0  9994
2 38922  50.0291  10.0416 1550192 223.9345 122.7524 12.47717764522240
Source of the keplerian elements: AFSPC